SCP
0 0 0 -0 -0 0 0 0 0 0 0 0 0 0 0 0 0 0 0 0 0 0
0 0 0 0 0 0 0 0 0 0 0 0 0 0 0 0 0 0 0 0 0 0
0 0 0 0 0 0 0 0 0 0 0 0 0 0 0 0 0 0 0 0 0 0
0 0 0 0 0 0 0 0 0 0 0 0 0 0 0 0 0 0 0 0 0 0
0 0 0 0 0 0 0 0 0 0 0 0 0 0 0 0 0 0 0 0 0 0
0 0 0 0 0 0 0 0 0 0 0 0 0 0 0 0 0 0 0 0 0 0
0 0 0 0 0 0 0 0 0 0 0 0 0 0 0 0 0 0 0 0 0 0
0 0 0 0 0 0 0 0 0 0 0 0 0 0 0 0 0 0 0 0 0 0
0 0 0 0 0 0 0 0 0 0 0 0 0 0 0 0 0 0 0 0 0 0
0 0 0 0 0 0 0 0 0 0 0 0 0 0 0 0 0 0 0 0 0 0
0 0 0 0 0 0 0 0 0 0 0 0 0 0 0 0 0 0 0 0 0 0
0 0 0 0 0 0 0 0 0 0 0 0 0 0 0 0 0 0 0 0 0 0
0 0 0 0 0 0 0 0 0 0 0 0 0 0 0 0 0 0 0 0 0 0
0 0 0 0 0 0 0 0 0 0 0 0 0 0 0 0 0 0 0 0 0 0
Wind_Speed_500mb
49 56 61 60 55 55 59 83 81 89 96 105 103 100 78 120 101 118 107 89 88 86
50 49 59 63 66 72 65 81 100 91 84 83 73 69 65 77 120 112 90 77 86 82
51 52 59 61 65 75 62 61 106 106 94 89 89 88 80 62 78 105 84 84 85 85
51 49 54 58 70 78 66 63 88 95 82 85 89 99 96 92 85 108 107 97 89 92
50 46 52 56 64 73 73 77 85 100 99 88 91 99 103 102 104 108 111 99 96 96
48 45 43 53 59 79 69 75 78 109 99 93 99 104 107 104 106 110 112 98 86 89
47 47 41 43 49 63 77 76 86 88 79 72 92 103 105 102 104 101 103 103 84 97
48 46 42 37 40 48 76 73 93 77 84 86 83 102 109 108 107 104 111 105 95 100
48 44 42 36 29 43 69 68 86 88 83 85 86 95 101 108 111 102 110 102 97 102
47 44 40 38 27 37 55 64 91 93 88 91 99 101 98 107 107 103 106 101 95 86
53 48 42 41 33 32 44 54 83 91 91 94 104 99 108 103 105 99 103 101 96 85
52 49 44 45 42 29 29 52 66 89 88 93 101 104 111 100 100 98 103 99 87 85
48 46 45 46 45 32 26 42 58 82 88 95 95 91 110 102 99 101 101 100 91 83
49 45 39 42 40 33 26 33 49 83 89 93 93 104 108 102 94 102 99 100 93 90
Wind_Direction_500mb
273 266 261 254 236 244 249 212 225 211 221 222 219 219 223 215 227 220 217 216 220 224
280 269 261 246 228 235 243 213 211 205 189 189 189 195 201 218 219 219 220 225 225 217
284 271 257 244 228 228 237 229 206 193 199 201 204 210 213 213 220 215 217 219 224 219
290 279 255 241 227 213 227 233 232 223 210 218 213 212 210 208 203 211 213 216 225 225
296 282 254 244 229 212 218 234 228 222 226 225 221 214 213 214 210 211 215 220 227 229
302 288 268 242 230 216 205 223 225 221 223 222 224 219 218 216 220 218 220 224 229 230
309 297 281 249 236 218 207 213 222 224 218 228 231 225 221 219 220 223 227 230 230 229
313 302 288 267 246 224 210 208 224 228 234 235 235 230 227 225 225 225 228 227 232 231
319 307 297 285 261 233 213 210 214 219 231 229 236 240 235 229 230 230 228 229 235 233
326 314 306 297 284 247 212 213 210 219 224 235 236 235 240 235 229 236 235 235 229 232
331 321 318 310 303 268 220 217 204 212 218 227 234 237 236 235 226 235 235 235 231 237
332 331 322 311 308 293 238 224 204 209 212 224 229 236 237 234 223 231 234 235 231 231
333 334 323 315 312 302 262 229 214 208 209 222 227 236 233 228 223 229 228 229 227 231
335 330 323 318 313 310 282 246 218 207 202 218 228 237 235 224 223 225 224 227 226 229
Wind_Speed_850mb
49 56 61 60 55 55 59 83 81 89 96 105 103 100 78 120 101 118 107 89 88 86
50 49 59 63 66 72 65 81 100 91 84 83 73 69 65 77 120 112 90 77 86 82
51 52 59 61 65 75 62 61 106 106 94 89 89 88 80 62 78 105 84 84 85 85
51 49 54 58 70 78 66 63 88 95 82 85 89 99 96 92 85 108 107 97 89 92
50 46 52 56 64 73 73 77 85 100 99 88 91 99 103 102 104 108 111 99 96 96
48 45 43 53 59 79 69 75 78 109 99 93 99 104 107 104 106 110 112 98 86 89
47 47 41 43 49 63 77 76 86 88 79 72 92 103 105 102 104 101 103 103 84 97
48 46 42 37 40 48 76 73 93 77 84 86 83 102 109 108 107 104 111 105 95 100
48 44 42 36 29 43 69 68 86 88 83 85 86 95 101 108 111 102 110 102 97 102
47 44 40 38 27 37 55 64 91 93 88 91 99 101 98 107 107 103 106 101 95 86
53 48 42 41 33 32 44 54 83 91 91 94 104 99 108 103 105 99 103 101 96 85
52 49 44 45 42 29 29 52 66 89 88 93 101 104 111 100 100 98 103 99 87 85
48 46 45 46 45 32 26 42 58 82 88 95 95 91 110 102 99 101 101 100 91 83
49 45 39 42 40 33 26 33 49 83 89 93 93 104 108 102 94 102 99 100 93 90
Wind_Direction_850mb
273 266 261 254 236 244 249 212 225 211 221 222 219 219 223 215 227 220 217 216 220 224
280 269 261 246 228 235 243 213 211 205 189 189 189 195 201 218 219 219 220 225 225 217
284 271 257 244 228 228 237 229 206 193 199 201 204 210 213 213 220 215 217 219 224 219
290 279 255 241 227 213 227 233 232 223 210 218 213 212 210 208 203 211 213 216 225 225
296 282 254 244 229 212 218 234 228 222 226 225 221 214 213 214 210 211 215 220 227 229
302 288 268 242 230 216 205 223 225 221 223 222 224 219 218 216 220 218 220 224 229 230
309 297 281 249 236 218 207 213 222 224 218 228 231 225 221 219 220 223 227 230 230 229
313 302 288 267 246 224 210 208 224 228 234 235 235 230 227 225 225 225 228 227 232 231
319 307 297 285 261 233 213 210 214 219 231 229 236 240 235 229 230 230 228 229 235 233
326 314 306 297 284 247 212 213 210 219 224 235 236 235 240 235 229 236 235 235 229 232
331 321 318 310 303 268 220 217 204 212 218 227 234 237 236 235 226 235 235 235 231 237
332 331 322 311 308 293 238 224 204 209 212 224 229 236 237 234 223 231 234 235 231 231
333 334 323 315 312 302 262 229 214 208 209 222 227 236 233 228 223 229 228 229 227 231
335 330 323 318 313 310 282 246 218 207 202 218 228 237 235 224 223 225 224 227 226 229